This is the latest recevied weather packets stored in our database for station/object N7SWJ. If no packets are shown the sender has not sent any weather packets the latest 1 day(s).
| Time | Temp. | Humidity | Pressure | Rain* | Wind** | Luminosity | Snow |
|---|---|---|---|---|---|---|---|
| 1778090025 | 3.89° C | 76% | 1023 hPa | 3.05 mm | - | 738 W/m² | - |
| 1778089722 | 3.89° C | 72% | 1022.9 hPa | 4.32 mm | - | 388 W/m² | - |
| 1778088207 | 4.44° C | 81% | 1022.9 hPa | 6.1 mm | - | 477 W/m² | - |
| 1778087905 | 3.33° C | 82% | 1022.9 hPa | 4.32 mm | - | 805 W/m² | - |
| 1778087602 | 3.33° C | 81% | 1023 hPa | 3.05 mm | - | 295 W/m² | - |
| 1778086995 | 3.33° C | 82% | 1023 hPa | 3.05 mm | - | 235 W/m² | - |
| 1778085779 | 2.78° C | 82% | 1022.8 hPa | 3.05 mm | - | 193 W/m² | - |
| 1778084866 | 2.22° C | 85% | 1022.3 hPa | 3.05 mm | - | 215 W/m² | - |
| 1778082742 | 1.67° C | 95% | 1022.6 hPa | 1.27 mm | - | 188 W/m² | - |
| 1778078580 | 0.56° C | 97% | 1022.1 hPa | 0 mm | - | 81 W/m² | - |
| 1778078278 | 0.56° C | 97% | 1021.9 hPa | 0 mm | - | 77 W/m² | - |
| 1778077069 | 0° C | 97% | 1021.9 hPa | 0 mm | - | 57 W/m² | - |
| 1778076767 | 0° C | 97% | 1021.6 hPa | 0 mm | - | 63 W/m² | - |
| 1778076464 | 0.56° C | 97% | 1021.6 hPa | 1.27 mm | - | 63 W/m² | - |
| 1778076161 | 0.56° C | 97% | 1021.6 hPa | 1.27 mm | - | 59 W/m² | - |
| 1778075858 | 0° C | 97% | 1021.6 hPa | 0 mm | - | 52 W/m² | - |
| 1778075554 | 0° C | 97% | 1021.4 hPa | 0 mm | - | 49 W/m² | - |
| 1778075251 | 0° C | 97% | 1021.5 hPa | 0 mm | - | 48 W/m² | - |
| 1778073129 | 0° C | 97% | 1021.2 hPa | 0 mm | - | 28 W/m² | - |
| 1778072826 | 0° C | 97% | 1020.9 hPa | 0 mm | - | 19 W/m² | - |
| 1778072523 | 0° C | 97% | 1020.8 hPa | 0 mm | - | 17 W/m² | - |
| 1778072221 | 0° C | 97% | 1020.8 hPa | 0 mm | - | 15 W/m² | - |
| 1778071919 | 0° C | 97% | 1020.7 hPa | 0 mm | - | 14 W/m² | - |
| 1778069196 | 0° C | 97% | 1020.4 hPa | 0 mm | - | 1 W/m² | - |
| 1778068290 | 0° C | 97% | 1020.3 hPa | 0 mm | - | 1 W/m² | - |
* Rain latest hour (hover to see other rain measurements)
** Current wind speed in m/s (hover to see current wind gust speed)